Location: Newark
(39.6172°N, 96.8533°W)
Time: 19:54:02
(UTC+00:00)

Envisat - Pass Details

Date: 30 January 2020
Orbit: 764 x 766 km, 98.1° (Epoch: 22 February)

Event Time Altitude Azimuth Distance (km) Brightness Sun altitude
Rises 00:58:08 0° 188° (S) 3,217 6.5 -14.6°
Reaches altitude 10° 01:00:37 10° 198° (SSW) 2,296 5.8 -15.0°
Maximum altitude 01:05:13 35° 263° (W) 1,225 4.8 -15.9°
Drops below altitude 10° 01:09:51 10° 329° (NNW) 2,310 5.8 -16.8°
Sets 01:12:22 0° 338° (NNW) 3,240 6.4 -17.3°
